STARLINK-32757 (62492 NORAD) Tracking and Keplerian Element Data

This shows tracking and keplerian element data for the satellite.

Feedback or suggestion? Click here.




ElementValue
Catalog62492
NameSTARLINK-32757
Epoch Orbit523
Epoch Day33.08467543
Epoch Year2025
RAAN35.7595
Inclination43.0016
Eccentricity0.0001432
Argument of Perigee277.561
Mean Anonmoly82.5088
Mean Motion15.505719
Decay Rate-3.838E-05
L11 62492U 25003F 25033.08467543 -.00003838 00000+0 -59638-4 0 9991
L22 62492 43.0016 35.7595 0001432 277.5610 82.5088 15.50571900 5235



Live tracking and technical data element details for STARLINK-32757 (NORAD 62492). STARLINK-32757 can be tracked NOW for your location showing map with azimuth and elevation plus other details from your city location.







IsCatalogInMostPopularTable: catalog: 62492, numindb: 15
Update: records affected: 1



GetName: 62492 STARLINK-32757

Hit Count: updated at: Sun, 18 May 2025 22:29:54 GMT